Location: Berlin
(52.5170°N, 13.3889°E)
Time: 21:57:07
(UTC+02:00)

LES 1 - Pass Details

Date: 17 June 2025
Orbit: 2779 x 2808 km, 32.1° (Epoch: 12 July)

Event Time Altitude Azimuth Distance (km) Brightness Sun altitude
Rises 03:38:10 0° 260° (W) 6,576 11.9 -7.3°
Reaches altitude 10° 03:43:03 10° 251° (WSW) 5,558 11.4 -6.9°
Maximum altitude 03:55:51 31° 197° (SSW) 4,096 10.7 -5.7°
Drops below altitude 10° 04:08:42 10° 143° (SE) 5,572 11.8 -4.5°
Sets 04:13:38 0° 133° (SE) 6,595 12.3 -4.0°
